When you browse on this site, cookies collect data to enhance your experience and personalize the content and advertising you see.
Visit our Privacy Policy to learn more. By continuing to use the site, you agree to this use of cookies and data.
  • In United Kingdom
  • List of Countries
  • For 7 days
  • Water Temperature
  • Satellite Maps
  • Weather Map
  • Weather Widgets
  • user-avatar
    Login

    Hourly Weather Pivnivshchyna

    Today, 21 June, Friday

    Time Temperature Precipitation Wind Pressure Humidity
    00:00 +20°C° 0 mm 3 mps 750 mmHg 90%
    01:00 +20°C° 0 mm 3 mps 751 mmHg 91%
    02:00 +20°C° 0 mm 3 mps 751 mmHg 92%
    03:00 +20°C° 0 mm 3 mps 751 mmHg 91%
    04:00 +20°C° 0 mm 3 mps 751 mmHg 91%
    05:00 +20°C° 0 mm 3 mps 751 mmHg 90%
    06:00 +21°C° 0 mm 3 mps 751 mmHg 85%
    07:00 +24°C° 0 mm 3 mps 751 mmHg 80%
    08:00 +25°C° 0 mm 3 mps 751 mmHg 76%
    09:00 +26°C° 0 mm 4 mps 751 mmHg 70%
    10:00 +28°C° 0 mm 4 mps 751 mmHg 65%
    11:00 +29°C° 0.1 mm 4 mps 751 mmHg 59%
    12:00 +29°C° 0 mm 4 mps 751 mmHg 58%
    13:00 +30°C° 0 mm 4 mps 751 mmHg 56%
    14:00 +30°C° 0 mm 4 mps 751 mmHg 55%
    15:00 +30°C° 0.1 mm 4 mps 751 mmHg 58%
    16:00 +30°C° 0.1 mm 4 mps 751 mmHg 61%
    17:00 +29°C° 0.1 mm 3 mps 751 mmHg 64%
    18:00 +28°C° 0.1 mm 3 mps 751 mmHg 70%
    19:00 +26°C° 0.1 mm 3 mps 751 mmHg 75%
    20:00 +24°C° 0.1 mm 3 mps 751 mmHg 81%
    21:00 +22°C° 0 mm 3 mps 751 mmHg 80%
    22:00 +21°C° 0 mm 3 mps 751 mmHg 79%
    23:00 +21°C° 0 mm 2 mps 751 mmHg 78%

    Tomorrow, 22 June, Saturday

    Time Temperature Precipitation Wind Pressure Humidity
    00:00 +20°C° 0 mm 2 mps 751 mmHg 80%
    01:00 +20°C° 0 mm 2 mps 751 mmHg 82%
    02:00 +19°C° 0 mm 2 mps 751 mmHg 84%
    03:00 +19°C° 0 mm 2 mps 751 mmHg 84%
    04:00 +19°C° 0 mm 2 mps 751 mmHg 84%
    05:00 +19°C° 0 mm 2 mps 751 mmHg 84%
    06:00 +21°C° 0 mm 2 mps 752 mmHg 78%
    07:00 +24°C° 0 mm 2 mps 752 mmHg 72%
    08:00 +26°C° 0 mm 2 mps 752 mmHg 67%
    09:00 +27°C° 0 mm 2 mps 752 mmHg 62%
    10:00 +28°C° 0 mm 3 mps 752 mmHg 58%
    11:00 +30°C° 0 mm 3 mps 752 mmHg 54%
    12:00 +30°C° 0 mm 3 mps 752 mmHg 52%
    13:00 +31°C° 0 mm 3 mps 752 mmHg 49%
    14:00 +31°C° 0 mm 3 mps 751 mmHg 47%
    15:00 +31°C° 0 mm 3 mps 751 mmHg 51%
    16:00 +31°C° 0 mm 2 mps 751 mmHg 54%
    17:00 +30°C° 0 mm 2 mps 751 mmHg 57%
    18:00 +29°C° 0 mm 2 mps 751 mmHg 62%
    19:00 +27°C° 0 mm 2 mps 751 mmHg 67%
    20:00 +25°C° 0 mm 2 mps 751 mmHg 71%
    21:00 +25°C° 0 mm 2 mps 752 mmHg 73%
    22:00 +24°C° 0 mm 2 mps 752 mmHg 75%
    23:00 +23°C° 0 mm 2 mps 752 mmHg 76%

    Day after tomorrow, 23 June, Sunday

    Time Temperature Precipitation Wind Pressure Humidity
    00:00 +23°C° 0 mm 2 mps 752 mmHg 75%
    01:00 +23°C° 0 mm 2 mps 752 mmHg 74%
    02:00 +23°C° 0 mm 2 mps 752 mmHg 73%
    03:00 +21°C° 0 mm 2 mps 752 mmHg 75%
    04:00 +21°C° 0 mm 2 mps 752 mmHg 76%
    05:00 +21°C° 0 mm 2 mps 752 mmHg 78%
    06:00 +24°C° 0 mm 2 mps 752 mmHg 74%
    07:00 +25°C° 0 mm 2 mps 752 mmHg 69%
    08:00 +27°C° 0 mm 2 mps 753 mmHg 65%
    09:00 +28°C° 0.1 mm 2 mps 753 mmHg 63%
    10:00 +28°C° 0.1 mm 2 mps 753 mmHg 61%
    11:00 +29°C° 0.1 mm 2 mps 753 mmHg 59%
    12:00 +30°C° 0.1 mm 2 mps 753 mmHg 56%
    13:00 +31°C° 0.1 mm 2 mps 753 mmHg 52%
    14:00 +31°C° 0.1 mm 2 mps 753 mmHg 49%
    15:00 +31°C° 0.1 mm 2 mps 753 mmHg 53%
    16:00 +30°C° 0.1 mm 2 mps 752 mmHg 58%
    17:00 +29°C° 0.1 mm 2 mps 752 mmHg 62%
    18:00 +27°C° 0.2 mm 2 mps 752 mmHg 70%
    19:00 +25°C° 0.2 mm 2 mps 753 mmHg 78%
    20:00 +23°C° 0.2 mm 2 mps 753 mmHg 85%
    21:00 +21°C° 0.2 mm 2 mps 753 mmHg 87%
    22:00 +21°C° 0.2 mm 2 mps 753 mmHg 88%
    23:00 +20°C° 0.2 mm 2 mps 754 mmHg 89%

    24 June, Monday

    Time Temperature Precipitation Wind Pressure Humidity
    00:00 +20°C° 0 mm 2 mps 754 mmHg 90%
    01:00 +20°C° 0 mm 2 mps 754 mmHg 91%
    02:00 +19°C° 0 mm 2 mps 754 mmHg 93%
    03:00 +19°C° 0 mm 2 mps 754 mmHg 93%
    04:00 +19°C° 0 mm 3 mps 754 mmHg 93%
    05:00 +20°C° 0 mm 3 mps 754 mmHg 94%
    06:00 +21°C° 0 mm 3 mps 755 mmHg 90%
    07:00 +22°C° 0 mm 4 mps 755 mmHg 86%
    08:00 +23°C° 0 mm 4 mps 755 mmHg 83%
    09:00 +25°C° 0.2 mm 4 mps 756 mmHg 78%
    10:00 +26°C° 0.2 mm 5 mps 756 mmHg 74%
    11:00 +27°C° 0.2 mm 5 mps 756 mmHg 69%
    12:00 +27°C° 0.1 mm 5 mps 756 mmHg 67%
    13:00 +28°C° 0.1 mm 6 mps 756 mmHg 65%
    14:00 +28°C° 0.1 mm 6 mps 756 mmHg 63%
    15:00 +28°C° 0 mm 6 mps 756 mmHg 63%
    16:00 +27°C° 0 mm 6 mps 756 mmHg 64%
    17:00 +27°C° 0 mm 5 mps 756 mmHg 65%
    18:00 +25°C° 0 mm 5 mps 756 mmHg 67%
    19:00 +23°C° 0 mm 5 mps 757 mmHg 69%
    20:00 +21°C° 0 mm 4 mps 757 mmHg 71%
    21:00 +20°C° 0 mm 4 mps 757 mmHg 71%
    22:00 +19°C° 0 mm 4 mps 758 mmHg 71%
    23:00 +18°C° 0 mm 4 mps 758 mmHg 71%

    25 June, Tuesday

    Time Temperature Precipitation Wind Pressure Humidity
    00:00 +17°C° 0 mm 3 mps 758 mmHg 74%
    01:00 +16°C° 0 mm 3 mps 758 mmHg 76%
    02:00 +14°C° 0 mm 3 mps 759 mmHg 79%
    03:00 +14°C° 0 mm 3 mps 759 mmHg 80%
    04:00 +14°C° 0 mm 3 mps 759 mmHg 81%
    05:00 +14°C° 0 mm 3 mps 759 mmHg 83%
    06:00 +17°C° 0 mm 3 mps 759 mmHg 79%
    07:00 +18°C° 0 mm 3 mps 759 mmHg 74%
    08:00 +20°C° 0 mm 3 mps 759 mmHg 70%
    09:00 +22°C° 0 mm 3 mps 759 mmHg 64%
    10:00 +24°C° 0 mm 3 mps 759 mmHg 57%
    11:00 +25°C° 0 mm 4 mps 759 mmHg 51%
    12:00 +26°C° 0 mm 3 mps 759 mmHg 49%
    13:00 +26°C° 0 mm 3 mps 759 mmHg 47%
    14:00 +26°C° 0 mm 3 mps 759 mmHg 46%
    15:00 +26°C° 0 mm 3 mps 759 mmHg 48%
    16:00 +26°C° 0 mm 3 mps 758 mmHg 51%
    17:00 +25°C° 0 mm 3 mps 758 mmHg 53%
    18:00 +22°C° 0 mm 3 mps 758 mmHg 59%
    19:00 +21°C° 0 mm 2 mps 758 mmHg 65%
    20:00 +20°C° 0 mm 1 mps 758 mmHg 71%
    21:00 +19°C° 0 mm 1 mps 758 mmHg 74%
    22:00 +18°C° 0 mm 1 mps 758 mmHg 77%
    23:00 +16°C° 0 mm 1 mps 758 mmHg 80%

    26 June, Wednesday

    Time Temperature Precipitation Wind Pressure Humidity
    00:00 +16°C° 0 mm 1 mps 757 mmHg 81%
    01:00 +15°C° 0 mm 1 mps 757 mmHg 82%
    02:00 +15°C° 0 mm 1 mps 757 mmHg 83%
    03:00 +15°C° 0 mm 1 mps 756 mmHg 82%
    04:00 +16°C° 0 mm 1 mps 756 mmHg 81%
    05:00 +16°C° 0 mm 1 mps 756 mmHg 81%
    06:00 +17°C° 0 mm 2 mps 756 mmHg 77%
    07:00 +19°C° 0 mm 2 mps 755 mmHg 74%
    08:00 +20°C° 0 mm 3 mps 755 mmHg 70%
    09:00 +20°C° 0.2 mm 3 mps 755 mmHg 69%
    10:00 +21°C° 0.2 mm 3 mps 755 mmHg 68%
    11:00 +22°C° 0.2 mm 3 mps 754 mmHg 67%
    12:00 +23°C° 0.1 mm 4 mps 754 mmHg 61%
    13:00 +23°C° 0.1 mm 4 mps 754 mmHg 54%
    14:00 +25°C° 0.1 mm 5 mps 754 mmHg 48%
    15:00 +23°C° 0 mm 5 mps 753 mmHg 49%
    16:00 +23°C° 0 mm 5 mps 753 mmHg 50%
    17:00 +22°C° 0 mm 5 mps 753 mmHg 51%
    18:00 +20°C° 0 mm 5 mps 753 mmHg 58%
    19:00 +18°C° 0 mm 4 mps 753 mmHg 64%
    20:00 +17°C° 0 mm 3 mps 753 mmHg 70%
    21:00 +16°C° 0 mm 3 mps 753 mmHg 73%
    22:00 +14°C° 0 mm 3 mps 753 mmHg 75%
    23:00 +13°C° 0 mm 3 mps 753 mmHg 77%
    Show more